Find Starlink 11615

NORAD ID: 63274 Int'l Des: 2025-053 Owner: SPXS Country: US Constellation: starlink operational
LEOCIRCULAR

当前视图

正在加载3D地球...

About Starlink 11615

Starlink 11615 (NORAD 63274) is a starlink constellation satellite (v2 mini d2c) launched Mar 15, 2025 by SPXS of US. It operates in LEO, CIRCULAR orbit with a mass of 960.00 kg.

关于 Starlink 11615

正在加载描述...

即将过境

Passes for default location (London). Set your location on the main map for personalized predictions.

高度历史

Loading altitude history...

两行轨道根数

1 63274U 25053K 26193.72868516 .00200847 00000-0 15123-2 0 9996
2 63274 43.0000 78.6502 0002379 234.1788 125.8858 15.71134588 77333
Epoch: Jul 12, 2026 • Age: 7 hours

当前状态

高度 364.5 km
远地点 / 近地点 N/A
速度 7.69 km/s
星下点 -34.65°S, 85.22°E
发射日期 Mar 15, 2025
运行时间 1.3 years
类型 internet

技术详情

分类 Payload
质量 960.00 kg
干质量 910.00 kg
总质量 960.00 kg
长度 0.30 m
直径 4.10 m
跨度 29.00 m
形状 Box + pan
制造商 SPXS
平台类型 Starlink V2MD
阶段状态 In Orbit
所有者/国家 SPXS/US

Most Searched